BAW846W EGLL-EPWA

Flight info

Callsign BAW846W
Flight time 2h 7m
Altitude 37000
Route BPK6J BPK Q295 MATCH DCT REDFA DCT TACHA DCT GARLU DCT ALUKA DCT EKBUT L619 DENKO P851 BIMPA BIMPA6U
Aircraft A21N/M-SDE2E3FGHIJ1RWXYZ/SB1G1

Departure

Time 2026-05-07 11:21
Airport London Heathrow Airport (EGLL)

Arrival

Time 2026-05-07 13:29
Airport Warsaw Chopin Airport (EPWA)
Time Latitude Longitude Altitude Speed Heading
2026-05-07 10:49 51.47290 -0.47999 92 ft 0 kts 273°
2026-05-07 11:08 51.47290 -0.47983 94 ft 4 kts 273°
2026-05-07 11:08 51.47288 -0.47940 91 ft 4 kts 273°
2026-05-07 11:09 51.47287 -0.47906 91 ft 4 kts 262°
2026-05-07 11:09 51.47298 -0.47876 93 ft 4 kts 201°
2026-05-07 11:09 51.47321 -0.47872 91 ft 4 kts 180°
2026-05-07 11:09 51.47335 -0.47872 91 ft 0 kts 180°
2026-05-07 11:14 51.47333 -0.47872 91 ft 1 kts 180°
2026-05-07 11:15 51.47314 -0.47872 91 ft 4 kts 180°
2026-05-07 11:15 51.47272 -0.47872 91 ft 8 kts 180°
2026-05-07 11:15 51.47204 -0.47871 91 ft 11 kts 179°
2026-05-07 11:15 51.47120 -0.47870 91 ft 13 kts 179°
2026-05-07 11:16 51.47023 -0.47869 91 ft 15 kts 179°
2026-05-07 11:16 51.46928 -0.47869 91 ft 14 kts 180°
2026-05-07 11:16 51.46834 -0.47868 91 ft 13 kts 180°
2026-05-07 11:16 51.46759 -0.47879 92 ft 10 kts 215°
2026-05-07 11:17 51.46743 -0.47990 92 ft 12 kts 271°
2026-05-07 11:17 51.46743 -0.48130 92 ft 13 kts 270°
2026-05-07 11:17 51.46743 -0.48289 92 ft 15 kts 269°
2026-05-07 11:17 51.46742 -0.48468 92 ft 17 kts 270°
2026-05-07 11:18 51.46742 -0.48619 92 ft 12 kts 270°
2026-05-07 11:18 51.46729 -0.48724 93 ft 9 kts 225°
2026-05-07 11:18 51.46674 -0.48748 91 ft 7 kts 180°
2026-05-07 11:18 51.46628 -0.48753 92 ft 6 kts 194°
2026-05-07 11:19 51.46605 -0.48765 91 ft 0 kts 199°
2026-05-07 11:19 51.46585 -0.48776 91 ft 4 kts 199°
2026-05-07 11:20 51.46549 -0.48790 91 ft 6 kts 182°
2026-05-07 11:20 51.46502 -0.48765 92 ft 8 kts 140°
2026-05-07 11:20 51.46479 -0.48693 92 ft 6 kts 96°
2026-05-07 11:20 51.46478 -0.48592 92 ft 24 kts 90°
2026-05-07 11:21 51.46480 -0.47930 92 ft 93 kts 90°
2026-05-07 11:21 51.46484 -0.46572 96 ft 148 kts 89°
2026-05-07 11:21 51.46489 -0.44721 297 ft 172 kts 89°
2026-05-07 11:21 51.46494 -0.42800 895 ft 172 kts 86°
2026-05-07 11:22 51.46636 -0.40897 1473 ft 178 kts 67°
2026-05-07 11:22 51.47397 -0.39263 1956 ft 191 kts 46°
2026-05-07 11:22 51.48343 -0.37611 2519 ft 214 kts 47°
2026-05-07 11:22 51.49385 -0.35706 3034 ft 239 kts 50°
2026-05-07 11:23 51.50500 -0.33590 3721 ft 254 kts 50°
2026-05-07 11:23 51.51641 -0.31387 4628 ft 259 kts 53°
2026-05-07 11:23 51.52518 -0.28838 5485 ft 265 kts 69°
2026-05-07 11:23 51.53144 -0.26037 6393 ft 268 kts 71°
2026-05-07 11:24 51.53752 -0.23192 7295 ft 271 kts 71°
2026-05-07 11:24 51.54384 -0.20313 8168 ft 275 kts 67°
2026-05-07 11:24 51.55496 -0.17828 8997 ft 278 kts 40°
2026-05-07 11:24 51.57178 -0.16283 9828 ft 282 kts 17°
2026-05-07 11:25 51.59138 -0.15866 10494 ft 293 kts 355°
2026-05-07 11:25 51.61215 -0.16476 10870 ft 315 kts 349°
2026-05-07 11:25 51.63473 -0.16375 11173 ft 338 kts 12°
2026-05-07 11:25 51.65774 -0.15267 11681 ft 351 kts 18°
2026-05-07 11:26 51.68110 -0.14030 12423 ft 356 kts 18°
2026-05-07 11:26 51.70486 -0.12789 13190 ft 361 kts 20°
2026-05-07 11:26 51.72707 -0.10884 13913 ft 365 kts 37°
2026-05-07 11:26 51.74468 -0.07929 14627 ft 369 kts 56°
2026-05-07 11:27 51.75550 -0.04174 15296 ft 373 kts 75°
2026-05-07 11:27 51.75984 -0.00034 15968 ft 377 kts 84°
2026-05-07 11:27 51.76279 0.04192 16641 ft 381 kts 84°
2026-05-07 11:27 51.76587 0.08451 17269 ft 384 kts 83°
2026-05-07 11:28 51.76919 0.12747 17861 ft 388 kts 83°
2026-05-07 11:28 51.77262 0.17030 18428 ft 392 kts 83°
2026-05-07 11:28 51.77623 0.21469 19017 ft 395 kts 83°
2026-05-07 11:28 51.78054 0.25806 19576 ft 398 kts 78°
2026-05-07 11:29 51.78722 0.30152 20142 ft 400 kts 76°
2026-05-07 11:29 51.79425 0.34521 20676 ft 404 kts 75°
2026-05-07 11:29 51.80137 0.38933 21216 ft 407 kts 76°
2026-05-07 11:29 51.80848 0.43373 21741 ft 410 kts 76°
2026-05-07 11:30 51.81559 0.47854 22273 ft 413 kts 76°
2026-05-07 11:30 51.82269 0.52359 22789 ft 416 kts 76°
2026-05-07 11:30 51.82988 0.56902 23289 ft 419 kts 76°
2026-05-07 11:30 51.83710 0.61479 23787 ft 421 kts 76°
2026-05-07 11:31 51.84436 0.66088 24286 ft 424 kts 76°
2026-05-07 11:31 51.85158 0.70725 24779 ft 427 kts 76°
2026-05-07 11:31 51.85882 0.75393 25245 ft 429 kts 76°
2026-05-07 11:31 51.86612 0.80077 25709 ft 431 kts 76°
2026-05-07 11:32 51.88079 0.89549 26583 ft 436 kts 76°
2026-05-07 11:32 51.88816 0.94328 26996 ft 438 kts 76°
2026-05-07 11:32 51.89553 0.99123 27405 ft 441 kts 76°
2026-05-07 11:33 51.90295 1.03953 27797 ft 442 kts 76°
2026-05-07 11:33 51.91034 1.08804 28189 ft 444 kts 76°
2026-05-07 11:33 51.91772 1.13668 28570 ft 446 kts 76°
2026-05-07 11:33 51.92517 1.18562 28920 ft 448 kts 76°
2026-05-07 11:34 51.93262 1.23472 29262 ft 450 kts 76°
2026-05-07 11:34 51.94008 1.28408 29605 ft 452 kts 76°
2026-05-07 11:34 51.94751 1.33346 30042 ft 450 kts 76°
2026-05-07 11:34 51.95489 1.38263 30500 ft 448 kts 76°
2026-05-07 11:35 51.96224 1.43171 30875 ft 448 kts 76°
2026-05-07 11:35 51.96955 1.48085 31244 ft 448 kts 76°
2026-05-07 11:35 51.97682 1.53001 31615 ft 447 kts 76°
2026-05-07 11:35 51.98407 1.57899 31931 ft 448 kts 76°
2026-05-07 11:36 51.99124 1.62747 32283 ft 447 kts 76°
2026-05-07 11:36 51.99845 1.67647 32636 ft 447 kts 76°
2026-05-07 11:36 52.00564 1.72551 32952 ft 446 kts 76°
2026-05-07 11:36 52.01282 1.77452 33236 ft 447 kts 76°
2026-05-07 11:37 52.01999 1.82360 33548 ft 446 kts 76°
2026-05-07 11:37 52.02713 1.87262 33826 ft 446 kts 77°
2026-05-07 11:37 52.03424 1.92167 34090 ft 446 kts 77°
2026-05-07 11:37 52.04127 1.97073 34363 ft 446 kts 77°
2026-05-07 11:38 52.04832 2.01980 34625 ft 446 kts 77°
2026-05-07 11:38 52.05535 2.06882 34855 ft 446 kts 77°
2026-05-07 11:38 52.06239 2.11793 35063 ft 447 kts 77°
2026-05-07 11:38 52.06942 2.16717 35250 ft 448 kts 77°
2026-05-07 11:39 52.07645 2.21647 35444 ft 448 kts 77°
2026-05-07 11:39 52.08346 2.26591 35649 ft 449 kts 77°
2026-05-07 11:39 52.09043 2.31541 35837 ft 449 kts 77°
2026-05-07 11:39 52.09736 2.36501 36029 ft 450 kts 77°
2026-05-07 11:40 52.10432 2.41459 36225 ft 450 kts 77°
2026-05-07 11:40 52.11128 2.46426 36402 ft 450 kts 77°
2026-05-07 11:40 52.11944 2.51343 36573 ft 451 kts 73°
2026-05-07 11:40 52.12865 2.56219 36756 ft 451 kts 73°
2026-05-07 11:41 52.13795 2.61085 36981 ft 450 kts 73°
2026-05-07 11:41 52.14724 2.65935 37131 ft 449 kts 73°
2026-05-07 11:41 52.15632 2.70713 37144 ft 447 kts 73°
2026-05-07 11:42 52.17469 2.80420 37117 ft 445 kts 73°
2026-05-07 11:42 52.19269 2.89996 37118 ft 445 kts 73°
2026-05-07 11:43 52.21069 2.99652 37107 ft 445 kts 73°
2026-05-07 11:43 52.22859 3.09322 37107 ft 445 kts 73°
2026-05-07 11:44 52.24649 3.18991 37109 ft 445 kts 73°
2026-05-07 11:44 52.26114 3.28810 37111 ft 446 kts 80°
2026-05-07 11:45 52.27163 3.38794 37109 ft 446 kts 81°
2026-05-07 11:45 52.28211 3.48773 37109 ft 446 kts 81°
2026-05-07 11:46 52.29265 3.58778 37113 ft 447 kts 81°
2026-05-07 11:46 52.30306 3.68790 37107 ft 447 kts 81°
2026-05-07 11:47 52.31334 3.78813 37107 ft 447 kts 81°
2026-05-07 11:47 52.32358 3.88842 37104 ft 447 kts 81°
2026-05-07 11:48 52.33374 3.98864 37103 ft 447 kts 81°
2026-05-07 11:48 52.34377 4.08908 37100 ft 447 kts 81°
2026-05-07 11:49 52.35373 4.18944 37105 ft 447 kts 81°
2026-05-07 11:49 52.36361 4.28990 37099 ft 447 kts 81°
2026-05-07 11:50 52.37342 4.39039 37100 ft 447 kts 81°
2026-05-07 11:50 52.38313 4.49097 37089 ft 447 kts 81°
2026-05-07 11:51 52.39269 4.59087 37095 ft 447 kts 81°
2026-05-07 11:51 52.40225 4.69146 37080 ft 447 kts 81°
2026-05-07 11:52 52.41169 4.79211 37081 ft 446 kts 81°
2026-05-07 11:52 52.42105 4.89259 37081 ft 447 kts 82°
2026-05-07 11:53 52.43031 4.99319 37082 ft 447 kts 82°
2026-05-07 11:53 52.43939 5.09405 37092 ft 448 kts 82°
2026-05-07 11:54 52.44844 5.19498 37084 ft 448 kts 82°
2026-05-07 11:54 52.45740 5.29594 37081 ft 448 kts 82°
2026-05-07 11:55 52.46619 5.39523 37080 ft 448 kts 82°
2026-05-07 11:55 52.47522 5.49627 37080 ft 448 kts 82°
2026-05-07 11:56 52.48410 5.59732 37081 ft 448 kts 82°
2026-05-07 11:56 52.49283 5.69860 37083 ft 448 kts 82°
2026-05-07 11:57 52.50138 5.79973 37080 ft 448 kts 82°
2026-05-07 11:57 52.50990 5.90095 37081 ft 448 kts 82°
2026-05-07 11:58 52.51830 6.00229 37080 ft 448 kts 83°
2026-05-07 11:58 52.52669 6.10370 37081 ft 449 kts 83°
2026-05-07 11:59 52.53498 6.20531 37081 ft 449 kts 83°
2026-05-07 11:59 52.54318 6.30699 37081 ft 449 kts 83°
2026-05-07 12:00 52.55127 6.40866 37080 ft 449 kts 83°
2026-05-07 12:00 52.55929 6.51042 37081 ft 449 kts 83°
2026-05-07 12:01 52.56723 6.61229 37080 ft 450 kts 83°
2026-05-07 12:01 52.57505 6.71367 37070 ft 450 kts 83°
2026-05-07 12:02 52.58283 6.81566 37071 ft 450 kts 83°
2026-05-07 12:02 52.59050 6.91772 37065 ft 450 kts 83°
2026-05-07 12:03 52.59810 7.01993 37061 ft 450 kts 83°
2026-05-07 12:03 52.60562 7.12202 37061 ft 450 kts 84°
2026-05-07 12:04 52.61304 7.22441 37061 ft 451 kts 84°
2026-05-07 12:04 52.62038 7.32685 37051 ft 451 kts 84°
2026-05-07 12:05 52.62764 7.42929 37049 ft 451 kts 84°
2026-05-07 12:05 52.63487 7.53179 37051 ft 451 kts 84°
2026-05-07 12:06 52.64190 7.63439 37061 ft 451 kts 84°
2026-05-07 12:06 52.64893 7.73712 37061 ft 451 kts 84°
2026-05-07 12:07 52.65585 7.83990 37069 ft 451 kts 84°
2026-05-07 12:07 52.66269 7.94269 37070 ft 451 kts 84°
2026-05-07 12:08 52.66822 8.02824 37077 ft 452 kts 84°
2026-05-07 12:08 52.67494 8.13124 37081 ft 452 kts 85°
2026-05-07 12:09 52.68159 8.23441 37079 ft 453 kts 85°
2026-05-07 12:09 52.68810 8.33778 37080 ft 453 kts 85°
2026-05-07 12:10 52.69449 8.44107 37082 ft 453 kts 85°
2026-05-07 12:10 52.70085 8.54439 37082 ft 453 kts 85°
2026-05-07 12:11 52.70711 8.64765 37081 ft 453 kts 85°
2026-05-07 12:11 52.71328 8.75102 37081 ft 452 kts 85°
2026-05-07 12:12 52.71930 8.85398 37078 ft 451 kts 85°
2026-05-07 12:12 52.72521 8.95698 37080 ft 451 kts 85°
2026-05-07 12:13 52.73104 9.05996 37081 ft 451 kts 85°
2026-05-07 12:13 52.73670 9.16233 37071 ft 451 kts 85°
2026-05-07 12:14 52.74233 9.26542 37060 ft 451 kts 86°
2026-05-07 12:14 52.74789 9.36868 37061 ft 452 kts 86°
2026-05-07 12:15 52.75344 9.47191 37066 ft 452 kts 86°
2026-05-07 12:15 52.75890 9.57522 37070 ft 451 kts 86°
2026-05-07 12:16 52.76418 9.67843 37071 ft 451 kts 86°
2026-05-07 12:16 52.76941 9.78174 37075 ft 452 kts 86°
2026-05-07 12:17 52.77456 9.88493 37069 ft 451 kts 86°
2026-05-07 12:17 52.77960 9.98841 37070 ft 451 kts 86°
2026-05-07 12:18 52.78463 10.09192 37071 ft 453 kts 86°
2026-05-07 12:18 52.78950 10.19564 37062 ft 453 kts 87°
2026-05-07 12:19 52.79431 10.29873 37059 ft 453 kts 87°
2026-05-07 12:19 52.79904 10.40249 37060 ft 453 kts 87°
2026-05-07 12:20 52.80366 10.50630 37060 ft 453 kts 87°
2026-05-07 12:20 52.80822 10.61002 37056 ft 453 kts 87°
2026-05-07 12:21 52.81264 10.71386 37054 ft 453 kts 87°
2026-05-07 12:21 52.81694 10.81774 37056 ft 453 kts 88°
2026-05-07 12:22 52.82126 10.92163 37055 ft 453 kts 88°
2026-05-07 12:22 52.82542 11.02551 37051 ft 453 kts 88°
2026-05-07 12:23 52.82953 11.12947 37058 ft 453 kts 88°
2026-05-07 12:23 52.83313 11.23357 37061 ft 454 kts 89°
2026-05-07 12:24 52.83651 11.33771 37060 ft 453 kts 89°
2026-05-07 12:24 52.83992 11.44186 37060 ft 453 kts 89°
2026-05-07 12:25 52.84325 11.54601 37060 ft 453 kts 89°
2026-05-07 12:25 52.84653 11.65016 37060 ft 454 kts 89°
2026-05-07 12:26 52.84972 11.75436 37060 ft 453 kts 89°
2026-05-07 12:26 52.85280 11.85859 37060 ft 454 kts 89°
2026-05-07 12:27 52.85581 11.96285 37060 ft 454 kts 89°
2026-05-07 12:27 52.85871 12.06721 37060 ft 454 kts 90°
2026-05-07 12:28 52.86152 12.17174 37060 ft 455 kts 90°
2026-05-07 12:28 52.86425 12.27629 37069 ft 455 kts 90°
2026-05-07 12:29 52.86688 12.38013 37061 ft 455 kts 90°
2026-05-07 12:29 52.86937 12.48470 37060 ft 455 kts 90°
2026-05-07 12:30 52.87175 12.58925 37061 ft 455 kts 90°
2026-05-07 12:30 52.87413 12.69401 37061 ft 455 kts 90°
2026-05-07 12:31 52.87641 12.79873 37065 ft 456 kts 90°
2026-05-07 12:31 52.87860 12.90335 37078 ft 455 kts 90°
2026-05-07 12:32 52.88067 13.00813 37077 ft 455 kts 91°
2026-05-07 12:32 52.88262 13.11291 37071 ft 456 kts 91°
2026-05-07 12:33 52.88554 13.27008 37075 ft 455 kts 91°
2026-05-07 12:33 52.88732 13.37490 37073 ft 456 kts 91°
2026-05-07 12:34 52.88905 13.47976 37063 ft 456 kts 91°
2026-05-07 12:34 52.89059 13.58394 37059 ft 456 kts 92°
2026-05-07 12:35 52.89207 13.68887 37056 ft 456 kts 92°
2026-05-07 12:35 52.89339 13.79368 37052 ft 456 kts 92°
2026-05-07 12:36 52.89465 13.89877 37054 ft 456 kts 92°
2026-05-07 12:36 52.89581 14.00363 37051 ft 456 kts 92°
2026-05-07 12:37 52.89685 14.10864 37055 ft 457 kts 92°
2026-05-07 12:37 52.89800 14.21389 37051 ft 457 kts 92°
2026-05-07 12:38 52.89829 14.31908 37048 ft 455 kts 97°
2026-05-07 12:38 52.89327 14.42338 37049 ft 454 kts 98°
2026-05-07 12:39 52.88806 14.52771 37053 ft 455 kts 98°
2026-05-07 12:39 52.88284 14.63213 37049 ft 455 kts 98°
2026-05-07 12:40 52.87757 14.73665 37049 ft 455 kts 99°
2026-05-07 12:40 52.87212 14.84096 37048 ft 455 kts 99°
2026-05-07 12:41 52.86656 14.94548 37048 ft 456 kts 99°
2026-05-07 12:41 52.86098 15.04987 37043 ft 455 kts 99°
2026-05-07 12:42 52.85546 15.15358 37039 ft 456 kts 99°
2026-05-07 12:42 52.84969 15.25807 37041 ft 456 kts 99°
2026-05-07 12:43 52.84378 15.36253 37041 ft 456 kts 99°
2026-05-07 12:43 52.83782 15.46699 37036 ft 456 kts 99°
2026-05-07 12:44 52.83178 15.57155 37036 ft 457 kts 100°
2026-05-07 12:44 52.82561 15.67607 37031 ft 457 kts 100°
2026-05-07 12:45 52.81944 15.78049 37029 ft 457 kts 99°
2026-05-07 12:45 52.81172 15.88445 37030 ft 455 kts 103°
2026-05-07 12:46 52.80191 15.98765 37030 ft 454 kts 104°
2026-05-07 12:46 52.79200 16.09076 37023 ft 455 kts 104°
2026-05-07 12:47 52.78200 16.19398 37020 ft 455 kts 104°
2026-05-07 12:47 52.77193 16.29714 37020 ft 455 kts 104°
2026-05-07 12:48 52.76180 16.40027 37020 ft 455 kts 104°
2026-05-07 12:48 52.75159 16.50332 37020 ft 455 kts 104°
2026-05-07 12:49 52.74126 16.60634 37020 ft 455 kts 104°
2026-05-07 12:49 52.73085 16.70931 37019 ft 455 kts 104°
2026-05-07 12:50 52.72031 16.81228 37020 ft 455 kts 104°
2026-05-07 12:50 52.70971 16.91520 37021 ft 455 kts 104°
2026-05-07 12:51 52.69897 17.01818 37020 ft 455 kts 105°
2026-05-07 12:51 52.68828 17.12039 37020 ft 456 kts 105°
2026-05-07 12:52 52.67734 17.22327 37021 ft 456 kts 105°
2026-05-07 12:52 52.66643 17.32611 37015 ft 455 kts 105°
2026-05-07 12:53 52.65533 17.42884 37011 ft 455 kts 105°
2026-05-07 12:53 52.64418 17.53144 37011 ft 455 kts 105°
2026-05-07 12:54 52.63291 17.63406 37011 ft 456 kts 105°
2026-05-07 12:54 52.62388 17.71611 37011 ft 456 kts 105°
2026-05-07 12:55 52.61255 17.81844 37002 ft 456 kts 105°
2026-05-07 12:55 52.60108 17.92094 37000 ft 456 kts 105°
2026-05-07 12:56 52.58948 18.02345 37001 ft 455 kts 106°
2026-05-07 12:56 52.57768 18.12573 37000 ft 456 kts 106°
2026-05-07 12:57 52.56779 18.21076 37000 ft 456 kts 106°
2026-05-07 12:57 52.55587 18.31256 36531 ft 450 kts 106°
2026-05-07 12:58 52.54990 18.36326 35750 ft 453 kts 107°
2026-05-07 12:58 52.54386 18.41410 35100 ft 455 kts 107°
2026-05-07 12:58 52.53781 18.46515 34426 ft 457 kts 107°
2026-05-07 12:58 52.53171 18.51648 33726 ft 459 kts 108°
2026-05-07 12:59 52.52554 18.56804 33030 ft 461 kts 108°
2026-05-07 12:59 52.51934 18.61965 32371 ft 461 kts 108°
2026-05-07 12:59 52.51312 18.67132 31736 ft 461 kts 108°
2026-05-07 12:59 52.50690 18.72279 31144 ft 459 kts 108°
2026-05-07 13:00 52.50067 18.77401 30566 ft 457 kts 108°
2026-05-07 13:00 52.49446 18.82502 30005 ft 454 kts 108°
2026-05-07 13:00 52.48827 18.87575 29429 ft 452 kts 108°
2026-05-07 13:00 52.48207 18.92612 28828 ft 450 kts 108°
2026-05-07 13:01 52.47589 18.97633 28255 ft 448 kts 108°
2026-05-07 13:01 52.46973 19.02619 27692 ft 445 kts 108°
2026-05-07 13:01 52.46362 19.07516 27128 ft 442 kts 108°
2026-05-07 13:01 52.45738 19.12504 26533 ft 441 kts 108°
2026-05-07 13:02 52.45134 19.17351 25949 ft 439 kts 107°
2026-05-07 13:02 52.44522 19.22237 25388 ft 436 kts 107°
2026-05-07 13:02 52.43911 19.27091 24837 ft 433 kts 107°
2026-05-07 13:02 52.43300 19.31906 24263 ft 431 kts 107°
2026-05-07 13:03 52.42686 19.36694 23696 ft 428 kts 107°
2026-05-07 13:03 52.42076 19.41467 23132 ft 427 kts 107°
2026-05-07 13:03 52.41474 19.46207 22575 ft 424 kts 107°
2026-05-07 13:03 52.40869 19.50922 22016 ft 422 kts 107°
2026-05-07 13:04 52.40266 19.55619 21438 ft 419 kts 106°
2026-05-07 13:04 52.39672 19.60261 20872 ft 414 kts 106°
2026-05-07 13:04 52.39079 19.64841 20335 ft 408 kts 106°
2026-05-07 13:04 52.38492 19.69356 19818 ft 402 kts 106°
2026-05-07 13:05 52.37912 19.73797 19316 ft 396 kts 105°
2026-05-07 13:05 52.37687 19.78278 18834 ft 397 kts 89°
2026-05-07 13:05 52.38308 19.82642 18475 ft 393 kts 71°
2026-05-07 13:05 52.39413 19.86701 18196 ft 390 kts 67°
2026-05-07 13:06 52.40545 19.90718 17933 ft 387 kts 68°
2026-05-07 13:06 52.41614 19.94756 17681 ft 385 kts 70°
2026-05-07 13:06 52.42627 19.98805 17434 ft 383 kts 70°
2026-05-07 13:06 52.43614 20.02843 17182 ft 382 kts 70°
2026-05-07 13:07 52.44594 20.06882 16928 ft 380 kts 70°
2026-05-07 13:07 52.45573 20.10909 16680 ft 380 kts 70°
2026-05-07 13:07 52.46546 20.14924 16431 ft 378 kts 70°
2026-05-07 13:07 52.47517 20.18924 16177 ft 377 kts 70°
2026-05-07 13:08 52.48495 20.22905 15936 ft 375 kts 70°
2026-05-07 13:08 52.49464 20.26876 15692 ft 374 kts 70°
2026-05-07 13:08 52.50394 20.30849 15442 ft 372 kts 74°
2026-05-07 13:08 52.50798 20.34974 15172 ft 360 kts 94°
2026-05-07 13:09 52.50336 20.38868 14962 ft 339 kts 117°
2026-05-07 13:09 52.49157 20.42070 14801 ft 320 kts 130°
2026-05-07 13:09 52.47871 20.44983 14586 ft 311 kts 129°
2026-05-07 13:09 52.46663 20.47932 14272 ft 312 kts 127°
2026-05-07 13:10 52.45510 20.50944 13932 ft 312 kts 126°
2026-05-07 13:10 52.44395 20.53989 13598 ft 312 kts 124°
2026-05-07 13:10 52.43300 20.57049 13268 ft 311 kts 124°
2026-05-07 13:10 52.42214 20.60111 12941 ft 310 kts 124°
2026-05-07 13:11 52.41133 20.63169 12624 ft 310 kts 124°
2026-05-07 13:11 52.40065 20.66200 12315 ft 304 kts 124°
2026-05-07 13:11 52.39011 20.69192 12003 ft 303 kts 124°
2026-05-07 13:11 52.37961 20.72170 11687 ft 302 kts 124°
2026-05-07 13:12 52.36924 20.75107 11382 ft 302 kts 124°
2026-05-07 13:12 52.35864 20.78116 11075 ft 301 kts 124°
2026-05-07 13:12 52.34823 20.81076 10770 ft 300 kts 123°
2026-05-07 13:12 52.33781 20.84025 10478 ft 298 kts 123°
2026-05-07 13:13 52.32757 20.86914 10196 ft 297 kts 123°
2026-05-07 13:13 52.31714 20.89858 9908 ft 295 kts 123°
2026-05-07 13:13 52.30704 20.92703 9614 ft 292 kts 123°
2026-05-07 13:13 52.29685 20.95568 9351 ft 291 kts 123°
2026-05-07 13:14 52.28669 20.98417 9081 ft 289 kts 123°
2026-05-07 13:14 52.27654 21.01228 8803 ft 286 kts 126°
2026-05-07 13:14 52.26335 21.03575 8524 ft 277 kts 148°
2026-05-07 13:14 52.24681 21.05137 8277 ft 272 kts 156°
2026-05-07 13:15 52.23001 21.06537 8025 ft 270 kts 156°
2026-05-07 13:15 52.21337 21.07928 7778 ft 266 kts 156°
2026-05-07 13:15 52.19722 21.09301 7622 ft 257 kts 156°
2026-05-07 13:15 52.18168 21.10630 7486 ft 247 kts 156°
2026-05-07 13:16 52.16664 21.11915 7291 ft 242 kts 156°
2026-05-07 13:16 52.15180 21.13182 7078 ft 240 kts 156°
2026-05-07 13:16 52.13713 21.14454 6850 ft 238 kts 155°
2026-05-07 13:16 52.12252 21.15730 6624 ft 238 kts 155°
2026-05-07 13:17 52.10798 21.17003 6408 ft 237 kts 155°
2026-05-07 13:17 52.09350 21.18272 6189 ft 236 kts 155°
2026-05-07 13:17 52.07901 21.19541 5977 ft 236 kts 155°
2026-05-07 13:17 52.06462 21.20799 5770 ft 234 kts 155°
2026-05-07 13:18 52.05022 21.22052 5576 ft 234 kts 155°
2026-05-07 13:18 52.03586 21.23304 5373 ft 234 kts 155°
2026-05-07 13:18 52.02147 21.24550 5181 ft 234 kts 155°
2026-05-07 13:18 52.00734 21.25777 4975 ft 234 kts 155°
2026-05-07 13:19 51.99300 21.27012 4824 ft 233 kts 155°
2026-05-07 13:19 51.97854 21.28251 4674 ft 236 kts 155°
2026-05-07 13:19 51.96401 21.29496 4556 ft 236 kts 155°
2026-05-07 13:19 51.94951 21.30744 4445 ft 236 kts 155°
2026-05-07 13:20 51.93505 21.31994 4367 ft 236 kts 155°
2026-05-07 13:20 51.92058 21.33239 4307 ft 235 kts 156°
2026-05-07 13:20 51.90531 21.34084 4230 ft 230 kts 178°
2026-05-07 13:20 51.88998 21.33662 4167 ft 223 kts 208°
2026-05-07 13:21 51.87825 21.32081 4112 ft 220 kts 235°
2026-05-07 13:21 51.87076 21.29910 4065 ft 222 kts 243°
2026-05-07 13:21 51.86428 21.27652 3991 ft 220 kts 249°
2026-05-07 13:21 51.86217 21.25209 3967 ft 223 kts 276°
2026-05-07 13:22 51.86775 21.22862 3973 ft 229 kts 304°
2026-05-07 13:22 51.87996 21.21190 3988 ft 235 kts 328°
2026-05-07 13:22 51.89454 21.20002 3991 ft 235 kts 330°
2026-05-07 13:22 51.90919 21.18826 3990 ft 235 kts 330°
2026-05-07 13:23 51.92375 21.17630 3994 ft 235 kts 330°
2026-05-07 13:23 51.93805 21.16459 3993 ft 229 kts 331°
2026-05-07 13:23 51.95200 21.15296 3981 ft 224 kts 329°
2026-05-07 13:23 51.96573 21.14118 3987 ft 221 kts 328°
2026-05-07 13:24 51.97874 21.12994 3981 ft 204 kts 328°
2026-05-07 13:24 51.99117 21.11917 3889 ft 202 kts 328°
2026-05-07 13:24 52.00334 21.10859 3680 ft 195 kts 328°
2026-05-07 13:24 52.01506 21.09839 3471 ft 188 kts 329°
2026-05-07 13:25 52.02653 21.08844 3265 ft 186 kts 329°
2026-05-07 13:25 52.03786 21.07858 3006 ft 181 kts 329°
2026-05-07 13:25 52.04862 21.06924 2766 ft 169 kts 329°
2026-05-07 13:25 52.05866 21.06050 2531 ft 161 kts 329°
2026-05-07 13:26 52.06849 21.05194 2326 ft 159 kts 329°
2026-05-07 13:26 52.07824 21.04344 2104 ft 159 kts 329°
2026-05-07 13:26 52.08795 21.03498 1880 ft 158 kts 329°
2026-05-07 13:26 52.09683 21.02726 1652 ft 132 kts 329°
2026-05-07 13:27 52.10477 21.02032 1473 ft 129 kts 329°
2026-05-07 13:27 52.11263 21.01346 1318 ft 128 kts 329°
2026-05-07 13:27 52.12049 21.00660 1150 ft 128 kts 329°
2026-05-07 13:27 52.12835 20.99975 982 ft 128 kts 329°
2026-05-07 13:28 52.13620 20.99290 794 ft 128 kts 329°
2026-05-07 13:28 52.14404 20.98608 628 ft 128 kts 330°
2026-05-07 13:28 52.15193 20.97926 455 ft 128 kts 330°
2026-05-07 13:28 52.15972 20.97245 350 ft 120 kts 330°
2026-05-07 13:29 52.16547 20.96734 346 ft 65 kts 332°
2026-05-07 13:29 52.16802 20.96532 349 ft 32 kts 347°
2026-05-07 13:29 52.16984 20.96516 349 ft 19 kts
2026-05-07 13:29 52.17077 20.96545 345 ft 8 kts 44°
2026-05-07 13:30 52.17107 20.96621 350 ft 7 kts 65°
2026-05-07 13:30 52.17127 20.96685 346 ft 7 kts 61°
2026-05-07 13:30 52.17150 20.96753 351 ft 6 kts 60°
2026-05-07 13:30 52.17163 20.96790 346 ft 4 kts 56°
2026-05-07 13:31 52.17193 20.96803 344 ft 6 kts 348°
2026-05-07 13:31 52.17239 20.96769 351 ft 7 kts 332°
2026-05-07 13:31 52.17275 20.96737 347 ft 4 kts 332°
2026-05-07 13:31 52.17302 20.96753 351 ft 4 kts 47°
2026-05-07 13:32 52.17315 20.96784 351 ft 4 kts 59°
2026-05-07 13:32 52.17327 20.96820 347 ft 3 kts 62°
2026-05-07 13:32 52.17331 20.96833 344 ft 0 kts 61°